STARLINK-4293, 52989

Orbit data source: Space-Track

STARLINK-4293, 52989 is a payload satellite owned by SpaceX/Seattle (US) in LEO that was launched on Thu, 07 Jul 2022 UTC via an FALCON 9 launch vehicle from the Air Force Eastern Test Range (AFETR). Payload-class satellites include a variety of spacecraft equipped with specific instruments for various scientific and technological missions. These include communications satellites like Starlink; space stations such as the ISS; scientific satellites like the Hubble; Earth observation satellites from companies like Planet Labs, Umbra, and HawkEye 360; GPS; miniature CubeSats for education and research; and military/defense satellites.

Loading next visibility...
Identifier
52989, 2022-076D
Orbit
LEO
Country
Flag of USUS
Related business
Manufacturer
SpaceX/Seattle
Mission
Operational Commercial Communications
Bus & Motor
STARLINK, Unknown motor
Mass
297 kg wet, ~275 kg dry
Launch date (UTC)
2022-07-07 (3 years ago)
Launch vehicle
FALCON 9
Launch site
Air Force Eastern Test Range (AFETR)
Object type
Payload
Rocket body
Debris
Shape & HBR
Box + 1 Pan, 10.1 m
Radar Cross Section
13.562 m², Large (>1 m²)

Expand to show TLE details & history
Last TLE update: 14 hours ago

TLE from 14 hours ago
0 STARLINK-4293
1 52989U 22076D   25341.20997293  .00000273  00000-0  35246-4 0  9992
2 52989  53.2179 159.2759 0001444  93.2253 266.8904 15.08834348188744
Epoch: 2025-12-07T05:02Z
TLE epoch observation values (Epoch: 2025-12-07T05:02:21.661Z)
Latitude
-0.00004°
Longitude
7.45898°
Altitude
540.713 km
Speed
7.593 km/s
True Right ascension
10h 37m 06s
True Declination
0° 00' 00"
Sunlit
Object was in daylight at epoch
Visualization orbit readout
Latitude
Unknown
Longitude
Unknown
Altitude
Unknown
Speed
Unknown
Apparent Right ascension
Unknown
Apparent Declination
Unknown
Sunlit
N/A
Visualization observer readout
Local Sidereal Time
16:39:27
Azimuth
Unknown
Elevation
Unknown
Doppler factor
Unknown
Orbital elements
Apogee altitude
541.005 km
Perigee altitude
539.007 km
Semi-major axis
6,918.143 km
Eccentricity
0.00014
Inclination
53.2179°
RAAN
159.2759°
Arg. of periapsis
93.2253°
True anomaly
266.87388°
Mean anomaly
266.8904°
Eccentric anomaly
266.88214°
Mean motion
3.77189 °/min
Orbital period
95.44 mins
BSTAR
0.000035246
Loading maneuver chart data...
Computing Atmospheric mass density...
Loading historical data...
Loading historical data...
Loading historical data...
Loading historical data...
Loading historical data...
Loading historical data...
Loading historical data...

Documentation

Showing up to 5 results
|